February 10-11, 2023
|
Boston University-Track & Tennis Center - Boston, MA
|
200m (Banked)
ICON KEY: NCAA DII Prov SUNYAC DIII New England AARTFC Liberty League NCAC NEICAAA IC4A/ECAC PSAC

Women's Mile

Top↑
PL NAME YEAR TEAM TIME TIME TIME
1 Cameron Ormond   Guelph 4:30.17 4:43.68 5:40.42
2 Lindsey Butler JR-3 Virginia Tech 4:31.41 5:47.41 4:15.13
3 Susan Ejore   UA Mission Run Balt Dista 4:31.80 3:18.42 4:04.62
4 Amaris Tyynismaa   UNAT-NC State 4:32.56 4:05.31 3:48.95
5 Silan Ayyildiz SO-2 South Carolina 4:32.74 5:10.93 5:10.93
6 Izzy Thornton-Bott JR-3 Oregon 4:33.15 3:41.26 5:30.52
7 Klaudia Kazimierska FR-1 Oregon 4:33.67 5:11.99 4:03.57
8 Taylor Rohatinsky FR-1 BYU 4:33.79 5:01.17 3:47.25
9 Margot Appleton SO-2 Virginia 4:33.82 3:47.27 3:55.49
10 Grace Jensen SR-4 Georgetown 4:34.11 5:34.42 3:42.03
11 Molly Sughroue   Tracksmith 4:34.14 3:31.09 4:56.08
12 Jessy Lacourse Senior Universite Laval 4:34.52 4:04.33 3:14.91
13 Mia Barnett SO-2 UCLA 4:34.58 5:34.99 3:20.45
14 Teagan Schein-Becker SR-4 Rider 4:34.63 5:40.55 3:23.23
15 Samantha Tran JR-3 Michigan 4:34.77 3:48.06 5:54.46
16 Riley Chamberlain FR-1 BYU 4:34.90 3:37.18 4:54.15
17 Madie Boreman   Unattached 4:35.26 4:10.49 4:02.23
18 Calli Doan SR-4 Liberty 4:36.52 5:34.59 3:19.10
19 Maddy Berkson Senior Rhode Island Track Club 4:36.52 3:19.10 4:50.35
20 Flomena Asekol JR-3 Alabama 4:37.24 4:15.06 5:46.55
21 Andrea Claeson JR-3 Georgetown 4:37.26 4:01.22 3:30.72
22 Tori Gerlach 8 Tinman Elite 4:37.33 3:16.91 4:20.69
23 Lou Trois JR-3 Toledo 4:37.47 4:45.80 3:39.21
24 Carina Viljoen   ASICS Mammoth Track Club 4:37.71 4:04.39 3:28.29
25 Samantha Bush JR-3 NC State 4:37.90 4:49.02 3:14.53
26 Karisa Nelson Senior Atalanta NYC 4:38.04 5:41.99 4:01.90
27 Gabrielle Wilkinson SR-4 Florida 4:38.43 5:03.49 5:20.20
28 Alondra Negron   Proceres 4:38.44 5:45.27 4:57.93
29 Kate Current   London Western 4:38.53 3:28.90 3:40.04
30 Madey Dickson   Unattached 4:38.69 3:29.02 5:03.78
31 Jami Reed JR-3 Alabama 4:39.23 3:54.56 5:37.87
32 Katherine Mitchell SR-4 Boston College 4:39.24 5:49.05 5:32.30
33 Shannon Flockhart SO-2 Providence 4:39.36 3:23.94 5:07.30
34 Margaret Liebich SO-2 Princeton 4:39.85 3:49.48 6:03.81
35 Lexy Halladay-Lowry SO-2 BYU 4:40.05 4:17.65 4:17.65
36 Mel Zammitti Senior Rhode Island Track Club 4:40.05 6:04.07 3:21.64
37 Kimberley May SO-2 Providence 4:40.37 3:47.10 4:54.39
38 Sydney Pattison   Stridewise 4:40.41 4:51.63 3:27.51
39 Lorena Rangel Batres SO-2 LSU 4:40.66 5:56.44 4:35.05
40 Florence Caron Junior Universite Laval 4:40.70 5:48.07 4:46.32
41 Mikaela Lucki SR-4 West Virginia 4:40.94 3:36.33 5:23.08
42 Emma McGill SO-2 Villanova 4:40.95 5:37.14 3:56.00
43 Chloe Thomas SO-2 Connecticut 4:41.04 5:03.53 5:06.34
44 Lydia Van Dijk SR-4 Wake Forest 4:41.21 3:28.10 4:13.09
45 Anna Juul SR-4 Michigan 4:41.60 6:00.45 3:34.02
46 Courtney Hufsmith   UniversityofCalgary Athletics 4:41.98 5:01.72 3:45.59
47 Carey Celata   Liberty Track Club 4:42.38 4:11.32 3:28.97
48 Lauren Berman   =PR= Track Club 4:42.57 5:05.18 3:40.41
49 Natalie Cizmas Senior VNTC 4:43.12 4:48.79 4:23.31
50 Kileigh Kane JR-3 Penn State 4:43.13 5:19.94 6:05.24
51 Melissa Menghini   Roots Running Project 4:43.37 4:57.54 4:00.87
52 Carmen Alder SO-2 BYU 4:44.73 5:21.75 4:04.87
53 Anya Hirschfeld JR-3 Dartmouth 4:44.82 6:01.73 5:53.18
54 Hayley Jackson SR-4 West Virginia 4:45.01 5:36.32 5:44.87
55 Meghan Convery SR-4 Boston University 4:45.71 4:05.71 4:34.29
56 Yukino Parle SR-4 George Washington 4:45.80 4:48.66 4:34.37
57 Nicole Vanasse JR-3 Columbia 4:45.86 3:57.27 4:43.01
58 Maya Rayle SR-4 Harvard 4:45.92 3:34.44 3:28.73
59 Anna Helwigh JR-3 Villanova 4:45.93 6:11.71 5:23.10
60 Kenzie Doyle JR-3 UMass Lowell 4:46.05 5:51.85 6:06.15
61 Hannah Ballowe JR-3 Virginia Tech 4:46.90 6:10.11 3:40.92
62 Ellaney Matarese SO-2 Harvard 4:47.13 6:07.53 5:24.46
63 Kaila Neigum Senior Regina 4:47.41 6:07.89 4:56.04
64 Emma Eastman JR-3 Syracuse 4:47.53 5:45.04 5:53.67
65 Ashley Navarro SR-4 Monmouth 4:47.76 5:02.15 5:02.15
66 Ashley Corcoran SR-4 SNHU 4:48.19 3:27.50 5:34.30
67 Samantha Friborg JR-3 Yale 4:48.22 6:14.69 4:48.22
68 Laura Nicholson JR-3 Temple 4:48.25 4:30.96 6:14.73
69 Callie Hardy SO-2 LSU 4:48.60 5:14.58 4:54.38
70 Kyla Martin Senior South Simcoe Dufferin 4:48.85 5:03.30 5:20.63
71 Sarah Flynn JR-3 Boston College 4:48.93 3:42.48 5:58.28
72 Maggie McCleskey FR-1 Adams State 4:49.16 4:20.25 3:31.09
73 Olivia Lomascolo JR-3 Siena 4:49.17 4:49.17 4:20.26
74 Grace Boone JR-3 Virginia Tech 4:49.58 3:45.88 6:10.67
75 Clare Peters JR-3 Colo. Sch. of Mines 4:49.60 5:21.46 6:10.69
76 Chloe Coutts Sophomore Western Ontario 4:49.61 5:33.06 6:07.81
77 Ainhoa Brea Senior Unattached 4:50.44 5:45.63 5:45.63
78 Taylor Lovell FR-1 BYU 4:50.48 5:07.91 3:23.34
79 Ella Gilson SO-2 Harvard 4:50.76 4:50.76 6:03.45
80 Emily Robinson SO-2 Villanova 4:50.83 4:01.39 4:56.65
81 Celia Chacko SR-4 Connecticut 4:50.90 3:26.54 4:16.00
82 Leoni Mierswa JR-3 SMU 4:51.35 4:48.44 3:38.52
83 Katherine Strong FR-1 Dartmouth 4:51.45 5:08.94 4:57.28
84 Alsu Lenneman   Very Nice TC/Ypsi Running 4:51.65 4:45.82 5:49.98
85 Mariana Rodriguez JR-3 UCF 4:51.89 4:11.03 5:53.19
86 Sydney Nowicki SO-2 Syracuse 4:51.97 5:03.65 5:21.17
87 Eleanor Abraham JR-3 Navy 4:52.08 3:56.59 3:30.30
88 Tessa Hunt SR-4 Providence 4:52.14 5:00.91 4:11.24
89 Kristin Siegle   Empire Elite TC 4:52.64 6:11.66 5:39.47
90 Sarah Mitchell FR-1 George Washington 4:52.67 6:05.84 4:43.89
91 Nicole Yeomans SR-4 New Hampshire 4:52.75 5:54.23 5:36.67
92 Gillian Roeder JR-3 MIT 4:52.78 5:54.27 6:20.62
93 Caroline Kirby SO-2 Syracuse 4:52.92 5:13.43 5:01.71
94 Lillian Holtery SO-2 UCF 4:53.01 3:28.04 5:31.11
95 Rachel Hickey SR-4 Illinois State 4:53.05 4:41.33 3:54.44
96 Madi Moffitt SR-4 BYU 4:53.18 6:03.55 3:42.82
97 Elizabeth Vroom Freshman Queen's University 4:53.30 5:57.83 5:13.84
98 Ryen Frazier   Unattached 4:53.50 4:06.54 5:49.27
99 Cornelia Wohlfahrt JR-3 North Dakota 4:53.52 5:25.81 6:03.97
100 Isabella Leak SO-2 Monmouth 4:53.62 6:09.97 3:43.16
101 Sarah Ross SO-2 UMass Lowell 4:54.06 5:35.23 4:57.00
102 Linde Fonville FR-1 Yale 4:54.09 3:40.57 5:49.97
103 Sevanne Ghazarian   Laurel Creek 4:54.18 5:47.14 6:07.73
104 Anastaysia Davis SO-2 BYU 4:54.22 4:04.21 3:52.44
105 Alex Raichart SR-4 Colo. Sch. of Mines 4:54.52 4:42.74 5:41.65
106 Molly Fitzgibbons JR-3 Williams 4:54.71 3:41.04 4:13.45
107 Jill Walker FR-1 New Hampshire 4:54.91 5:00.81 4:25.42
108 Ava Duggan JR-3 Northeastern 4:54.91 4:07.73 6:08.64
109 Mairead Clas FR-1 Cornell 4:55.19 3:35.49 5:21.76
110 Nimrit Ahuja FR-1 Brown 4:55.21 4:07.98 4:52.26
111 Jordyn McDonnell SR-4 Hofstra 4:55.33 4:02.17 5:42.59
112 Lucy Abdow JR-3 Northeastern 4:55.40 6:15.16 4:08.14
113 Gabby Swider SR-4 Michigan 4:55.45 4:34.77 4:25.91
114 Vivian McMahon SO-2 Northeastern 4:55.47 4:52.52 5:57.52
115 Henna Rustami   Brooklyn Track Club 4:55.66 6:00.71 4:05.40
116 Alexis Allen SO-2 Princeton 4:55.88 6:06.90 5:58.02
117 Morgan Lee JR-3 RPI 4:55.91 3:53.77 5:46.22
118 Jane Leighton SR-4 Vermont 4:56.05 4:32.37 5:13.82
119 Gabrielle Toth JR-3 Iona 4:56.07 3:45.02 3:59.82
120 Delia McDade Clay JR-3 Siena 4:56.13 3:36.18 5:31.67
121 Isabel Stronski JR-3 Brown 4:56.45 6:01.67 4:06.06
122 Nina Gunther Senior Ottawa 4:56.54 4:03.17 4:35.79
123 Katja Jackson FR-1 Cornell 4:56.67 5:14.47 5:50.07
124 Lucia Rabolli FR-1 Rutgers 4:56.69 5:47.13 3:51.42
125 Paige Sheppard   Speed Skills TC 4:56.90 3:36.74 5:32.53
126 Madison Edwards SR-4 Air Force 4:57.20 3:31.02 3:45.88
127 Steph Finley JR-3 Dartmouth 4:57.22 6:26.39 5:50.72
128 Shannon Trevor SO-2 Northeastern 4:57.29 4:45.40 5:12.16
129 Jerika Lufrano JR-3 La Salle 4:57.31 4:33.53 3:57.85
130 Isolde McManus SO-2 Brown 4:57.41 4:15.78 4:03.88
131 Zoe Brickley SR-4 Wingate 4:57.55 3:37.22 5:33.26
132 Kate Kenny SR-4 Middlebury 4:57.59 4:24.86 6:11.99
133 Mackenzie Setton FR-1 Johns Hopkins 4:57.92 5:45.59 3:34.51
134 Erin Eivers SO-2 SUNY Geneseo 4:58.06 5:36.81 4:31.24
135 Lexi Seifert SR-4 George Washington 4:58.11 5:10.04 3:55.51
136 Sabrina Lavigne Senior Universite Laval 4:58.17 5:22.03 4:07.49
137 Marcie Hogan JR-3 SUNY Geneseo 4:58.26 3:55.63 6:24.76
138 Abby Beville   New England Elite Track Club 4:58.29 4:58.29 5:25.14
139 Melissa Jachim SO-2 Army West Point 4:58.38 5:19.27 4:49.43
140 Madison Relyea SO-2 Connecticut 4:58.80 3:47.09 5:19.72
141 Sierra Doody FR-1 SUNY Geneseo 4:59.01 5:58.82 6:01.81
142 Brooke Morabito JR-3 Central Connecticut 4:59.01 3:44.26 6:01.81
143 Calista Mayer Freshman Unattached 4:59.28 4:20.38 4:26.36
144 Leila Trummel SR-4 Bowdoin 4:59.30 5:56.17 6:11.14
145 Grace Hadley SR-4 WPI 4:59.35 4:47.38 6:08.20
146 Kensey May FR-1 Syracuse 4:59.36 5:02.36 5:23.31
147 Mary-Kate Finn FR-1 UMass Lowell 4:59.49 4:29.55 6:26.35
148 Lily O'Donoghue-McDonald FR-1 Harvard 4:59.67 4:32.70 4:32.70
149 Eugenia Fairhurst SO-2 UMass Amherst 4:59.82 5:35.80 5:38.80
150 Danielle Adams FR-1 Connecticut 4:59.99 4:47.99 5:41.99
151 Lucy Gagnon JR-3 Williams 5:00.02 5:39.03 5:54.03
152 Carly Hall SO-2 Youngstown St. 5:00.03 4:06.03 4:39.03
153 Laura Zimmer JR-3 Claremont-Mudd-Scripps 5:00.82 5:39.93 5:30.91
154 Macey Hilton FR-1 SMU 5:01.25 3:36.90 5:52.47
155 Isis Diaz FR-1 Johns Hopkins 5:01.62 4:40.51 5:43.85
156 Rachel Conhoff SR-4 Ursinus 5:01.80 3:31.26 6:23.29
157 Hope Harnack Senior McMaster 5:01.81 5:47.09 6:05.19
158 Ona Alonso FR-1 Wingate 5:01.87 4:34.71 4:37.72
159 Kate Cameron FR-1 Simon Fraser 5:02.17 6:29.80 5:05.20
160 Cora Henderson   Durham Dragons Athletics 5:02.27 4:47.16 4:29.02
161 Tenley Nelson Junior Phillips Exeter 5:02.56 6:03.08 4:02.05
162 Peyton Leigh FR-1 Princeton 5:02.69 4:02.16 6:06.26
163 Gillian Porter Freshman Queen's University 5:03.24 4:42.02 4:45.05
164 Tabatha Walford SR-4 Eastern Michigan 5:03.41 6:34.44 3:32.39
165 Hope Murphy SO-2 Baldwin Wallace 5:03.49 5:58.12 4:24.04
166 Vassi Klock FR-1 Buffalo 5:03.49 5:27.77 5:12.60
167 Chase Kappeler SO-2 Virginia Tech 5:03.51 3:38.53 4:30.13
168 Caroline McMartin SO-2 Central College 5:03.59 5:43.06 5:46.10
169 Claire Kelly SO-2 Providence 5:04.22 4:30.76 5:31.60
170 Caroline Ash Freshman St. Francis Xavier 5:04.27 6:08.17 6:26.43
171 Olivia Takla FR-1 Brown 5:04.61 3:57.60 6:14.67
172 Adele Broussard JR-3 LSU 5:04.65 6:02.54 5:16.84
173 Andie Cornish SR-4 Vermont 5:04.71 6:14.80 5:16.90
174 Cristina DeMeo FR-1 Harvard 5:05.11 3:36.63 3:48.84
175 Sira Bo FR-1 Wingate 5:05.55 6:31.11 3:43.06
176 Adriana Catalano FR-1 Johns Hopkins 5:05.64 5:27.04 4:50.36
177 Christina Crow SO-2 MIT 5:05.83 3:58.55 5:05.83
178 Ella Webster FR-1 Wittenberg 5:05.94 6:10.19 6:28.55
179 Caleigh Pribaz Freshman Queen's University 5:06.41 6:29.14 6:04.63
180 Victoria Lamb Sophomore McMaster 5:06.53 4:02.16 4:29.75
181 Ava Mahoney JR-3 Merrimack 5:06.59 4:29.80 5:21.92
182 Rebekah James SR-4 UMass Amherst 5:07.05 5:37.76 4:05.64
183 Miana Caraballo FR-1 UMass Lowell 5:07.12 4:42.55 5:40.91
184 Elizabeth White Freshman Queen's University 5:07.42 6:21.20 6:39.65
185 Amelia Kokernak SR-4 WPI 5:07.51 4:09.09 4:21.39
186 Sylvan Wold SO-2 Amherst 5:08.37 4:34.45 6:16.22
187 Izzy Doran SR-4 George Washington 5:08.67 5:48.80 4:53.24
188 Lily Sheth SO-2 Johns Hopkins 5:08.73 5:21.08 6:29.00
189 Camille Boudreau Sophomore Universite Laval 5:09.31 4:19.82 4:16.73
190 Bailey Ranta FR-1 Toledo 5:09.55 5:06.46 4:44.79
191 Alex Bettez SO-2 Williams 5:09.78 6:08.64 5:19.08
192 Leah Haley SR-4 NYU 5:09.87 6:36.64 3:52.41
193 Nora Blodgett SR-4 Northeastern 5:09.99 5:00.69 4:20.40
194 Sarah-Maude Thibodeau   Zenix 5:10.09 6:30.72 5:10.09
195 Chloe Poulos FR-1 Siena 5:10.14 3:58.81 4:39.13
196 Mackenzie Czurak SO-2 UCF 5:10.17 5:28.78 3:40.22
197 Caitlin Guilfoyle JR-3 WPI 5:10.19 4:08.16 6:18.44
198 Kelsey Hull FR-1 Shippensburg 5:10.35 3:55.87 4:54.84
199 Katherine Cheng SO-2 NYU 5:10.54 4:51.91 5:35.39
200 Lilly Wells SR-4 Williams 5:10.68 5:04.47 4:17.87
201 Natasha Beijen FR-1 Texas 5:10.72 6:00.44 3:37.51
202 Justus Holden-Betts JR-3 Syracuse 5:10.88 3:40.73 5:38.86
203 Madeline Bachmann SR-4 Boston University 5:11.14 5:29.81 3:47.14
204 Lauren Traum JR-3 Bowdoin 5:11.25 6:01.05 5:20.59
205 Elise Deshusses SR-4 WPI 5:11.65 4:31.14 5:21.00
206 Sarah Prangley SO-2 Simon Fraser 5:11.79 3:50.73 4:40.62
207 Kyra Gerber SR-4 Shippensburg 5:11.80 5:55.46 5:39.87
208 Rachael Watkins FR-1 Simon Fraser 5:11.92 5:15.04 6:11.19
209 Fransiscah Cherotich FR-1 American Int'l 5:12.09 4:47.13 4:50.25
210 Mary Yount JR-3 UMass Lowell 5:12.13 4:44.04 6:30.17
211 Sydney Todd SO-2 Monmouth 5:12.16 6:20.84 6:17.72
212 Alexandra Dean FR-1 Tufts 5:12.16 6:05.23 3:51.00
213 Kaitlyn Grossman SO-2 SUNY Geneseo 5:12.79 4:10.24 5:53.46
214 Anna Macdonald FR-1 Pomona-Pitzer 5:13.13 5:22.53 4:04.25
215 Grace Minikel JR-3 Adelphi 5:13.32 6:25.39 6:15.99
216 Kylie Marion FR-1 UMass Lowell 5:13.68 6:03.87 5:41.92
217 Audrey Grimes SR-4 Middlebury 5:13.85 6:10.35 6:26.04
218 Hannah D'Orso SR-4 Hartford 5:13.97 5:07.69 3:55.48
219 Marissa Silba SR-4 Canisius 5:13.98 5:20.26 4:52.01
220 Sarah Burns SR-4 UMass Lowell 5:14.01 5:42.27 4:39.47
221 Catherine Dacey SO-2 Union (N.Y.) 5:14.46 5:20.75 4:55.60
222 Briana Grecco SO-2 So. Conn. St. 5:14.52 5:20.81 4:58.80
223 Jillian Lees JR-3 RPI 5:14.54 5:46.00 6:01.73
224 Lucia Werner Junior Unattached 5:14.96 6:11.66 3:59.37
225 Ally Deegan JR-3 Amherst 5:14.99 5:02.39 4:52.94
226 Molly Silva SO-2 Lynchburg 5:15.02 4:21.47 6:18.03
227 Emma Bouvier SR-4 Merrimack 5:15.03 4:12.03 4:24.63
228 Aisling Callahan FR-1 Johns Hopkins 5:15.29 6:34.12 5:21.60
229 Clare Kelly SO-2 Vermont 5:15.49 4:21.86 6:21.75
230 Jules Jones JR-3 Canisius 5:16.16 6:41.53 6:19.40
231 Kristina Kyle FR-1 Springfield 5:16.32 4:38.37 4:16.22
232 Julia Schor SO-2 Amherst 5:16.71 3:54.37 5:10.38
233 Abby Scott SR-4 Williams 5:16.93 5:01.09 4:32.56
234 Samantha Fellman FR-1 Tufts 5:16.99 4:13.60 4:07.26
235 Abby Artabane   Emerging Elite 5:17.00 4:45.30 5:32.85
236 Dantia Braccio FR-1 UMass Lowell 5:17.09 4:48.56 4:51.73
237 Jacqueline Appenheimer FR-1 Canisius 5:17.17 4:39.11 5:39.38
238 Camille Rheault Freshman Universite Laval 5:17.45 5:11.11 4:33.01
239 Kata Clark   New England Elite Track Club 5:17.52 6:08.33 5:58.80
240 Delaney Hesler Freshman Unattached 5:17.66 4:49.07 3:45.54
241 Ella Whinney FR-1 Wellesley 5:17.67 5:24.03 6:02.15
242 Holly Chambers SR-4 Ursinus 5:17.81 3:42.47 6:46.80
243 Ella DePhillips JR-3 Oneonta 5:17.85 5:49.64 4:23.82
244 Kaitlyn O'Rourke JR-3 SNHU 5:17.91 4:52.48 4:49.30
245 Elizabeth Donahue FR-1 Tufts 5:17.94 5:59.28 4:08.00
246 Rachel Tucci JR-3 Adelphi 5:18.19 5:27.74 4:55.92
247 Harrinee Senthilkumar SO-2 Johns Hopkins 5:18.23 4:55.96 3:49.13
248 Alexa Van Voorhis SR-4 UMass Dartmouth 5:18.29 5:05.56 5:34.21
249 Ellie Murphy-Weise SR-4 Wellesley 5:18.32 5:34.24 5:46.97
250 Veronica Dailey JR-3 Brockport St. 5:18.38 3:42.87 5:37.49
251 Sydney Khosla SO-2 Wittenberg 5:18.52 5:56.75 5:24.89
252 Eleanor Tyne FR-1 Tufts 5:18.53 5:50.39 6:09.50
253 Nanditha Hegde   New England Elite Track Club 5:18.59 4:24.43 6:19.13
254 Ally McCarthy Freshman Unattached 5:18.95 6:22.74 4:31.11
255 Olivia Reid SO-2 RPI 5:19.46 6:13.77 4:34.74
256 Maya Richardson JR-3 Iona 5:19.55 6:49.03 4:38.01
257 Ilana Zeilinger SR-4 Bates 5:19.68 6:04.44 3:43.78
258 Jaz Vanderhoof FR-1 Wheaton (Mass.) 5:19.70 5:45.28 5:35.69
259 Fanny Hotton-Daigneault Freshman Universite Laval 5:19.80 3:59.85 4:25.44
260 Haley Oliver FR-1 RIC 5:19.82 5:16.63 4:22.26
261 Bridget Pickard JR-3 Brandeis 5:19.88 5:03.89 5:58.27
262 Lexi Mogensen SO-2 Towson 5:20.15 5:45.77 6:11.38
263 Mirabel Brunell FR-1 Springfield 5:20.58 4:32.50 5:33.41
264 Emma Barker SO-2 Bowdoin 5:20.65 4:26.14 4:16.52
265 Margo Kenyon SO-2 Colby 5:20.79 3:50.97 3:47.76
266 Corrina Obernesser FR-1 SNHU 5:20.95 6:18.72 5:46.63
267 Tatjana Mense JR-3 Wingate 5:21.09 3:54.40 6:41.37
268 Reid Harvey-McKean   Durham Dragons Athletics 5:21.98 6:13.50 4:11.15
269 Lauren Pollak JR-3 Tufts 5:22.24 6:00.91 5:02.91
270 Ona Ortiz-Gudeman FR-1 Amherst 5:22.37 4:21.12 5:48.16
271 Sarah Enes JR-3 Assumption 5:22.39 4:43.71 4:34.04
272 Kahryn Cullenberg JR-3 Bates 5:22.45 4:43.76 6:39.84
273 Violet Ross SO-2 Middlebury 5:22.75 5:45.35 6:40.21
274 Abby Fernald FR-1 Connecticut College 5:23.17 6:18.11 4:50.86
275 Ella Warkentine FR-1 Brandeis 5:23.39 4:28.42 6:31.31
276 Hannah Fiorentine SO-2 SUNY Geneseo 5:23.57 7:00.65 4:51.22
277 Grace Ogden FR-1 Tufts 5:23.79 5:46.46 4:41.70
278 Lizzie Bigelow FR-1 Syracuse 5:25.23 4:03.93 4:52.71
279 Katie Cline FR-1 Pomona-Pitzer 5:26.08 5:16.30 6:21.52
280 Anna Gruesen   Unattached 5:27.10 6:42.34 6:19.44
281 Kiersten Lloyd SO-2 Lock Haven 5:27.44 6:59.13 5:40.54
282 Alix Pettinella   Battle road track club 5:29.05 5:22.47 5:25.76
283 Finleigh Simonds Senior New England Elite Track Club 5:29.64 5:52.72 6:28.98
284 Rhea Braganza FR-1 Pomona-Pitzer 5:30.18 6:06.50 4:40.66
285 Anna Kavanagh JR-3 Boston University 5:31.63 4:21.99 4:21.99
286 Stella Gladden FR-1 NYU 5:31.95 6:15.11 3:52.37
287 Rowan Hassman SR-4 Bates 5:32.05 5:48.66 4:52.21
288 Emma Hupp JR-3 Coast Guard 5:37.88 4:53.96 5:51.40
  Emily Sessa SR-4 UMass Lowell DNF DNF DNF
  Gina McNamara   Pacers/GRC New Balance DNF DNF DNF
  McKenna Keegan   Melbourne Track Club DNF DNF DNF
  Susan Aneno   PDC DNF DNF DNF
  Candace Tytler FR-1 Boston University DNF DNF DNF
  Meghan Hunter SO-2 BYU DNF DNF DNF
  Krystie Solomon SO-2 BYU DNF DNF DNF
  Alena Ellsworth SR-4 BYU DNF DNF DNF
  Kyandra Chandler SR-4 Southern Virginia DNF DNF DNF
  Claudia Saunders   Baltimore 800 DNF DNF DNF
  Paige Carter   UNAT-Boston College DNF DNF DNF
  Kristie Schoefield   New Balance Boston DNF DNF DNF
Women's Mile Section 1
PL NAME YEAR TEAM TIME TIME TIME
3 Susan Ejore   UA Mission Run Balt Dista 4:31.80 4:53.55 3:34.73
5 Silan Ayyildiz SO-2 South Carolina 4:32.74 4:05.47 5:19.11
6 Izzy Thornton-Bott JR-3 Oregon 4:33.15 3:35.79 3:54.91
7 Klaudia Kazimierska FR-1 Oregon 4:33.67 5:01.04 5:20.20
11 Molly Sughroue   Tracksmith 4:34.14 5:20.75 4:34.14
13 Mia Barnett SO-2 UCLA 4:34.58 4:53.80 3:47.91
17 Madie Boreman   Unattached 4:35.26 5:24.81 4:18.75
20 Flomena Asekol JR-3 Alabama 4:37.24 4:53.88 3:41.80
24 Carina Viljoen   ASICS Mammoth Track Club 4:37.71 4:29.38 5:27.70
29 Kate Current   London Western 4:38.53 4:46.89 5:23.10
33 Shannon Flockhart SO-2 Providence 4:39.36 3:54.67 5:07.30
  Claudia Saunders   Baltimore 800 DNF DNF DNF
  Kristie Schoefield   New Balance Boston DNF DNF DNF
Women's Mile Section 2
PL NAME YEAR TEAM TIME
1 Cameron Ormond   Guelph 4:30.17
2 Lindsey Butler JR-3 Virginia Tech 4:31.41
4 Amaris Tyynismaa   UNAT-NC State 4:32.56
8 Taylor Rohatinsky FR-1 BYU 4:33.79
9 Margot Appleton SO-2 Virginia 4:33.82
10 Grace Jensen SR-4 Georgetown 4:34.11
16 Riley Chamberlain FR-1 BYU 4:34.90
19 Maddy Berkson Senior Rhode Island Track Club 4:36.52
21 Andrea Claeson JR-3 Georgetown 4:37.26
22 Tori Gerlach 8 Tinman Elite 4:37.33
25 Samantha Bush JR-3 NC State 4:37.90
26 Karisa Nelson Senior Atalanta NYC 4:38.04
27 Gabrielle Wilkinson SR-4 Florida 4:38.43
32 Katherine Mitchell SR-4 Boston College 4:39.24
48 Lauren Berman   =PR= Track Club 4:42.57
  McKenna Keegan   Melbourne Track Club DNF
Women's Mile Section 3
PL NAME YEAR TEAM TIME TIME TIME
12 Jessy Lacourse Senior Universite Laval 4:59.23 4:34.52 5:40.41
14 Teagan Schein-Becker SR-4 Rider 4:37.38 4:34.63 5:48.78
15 Samantha Tran JR-3 Michigan 4:01.80 4:34.77 4:34.77
23 Lou Trois JR-3 Toledo 5:08.00 4:37.47 4:04.18
30 Madey Dickson   Unattached 4:35.91 4:38.69 3:48.53
35 Lexy Halladay-Lowry SO-2 BYU 3:58.05 4:40.05 5:22.06
39 Lorena Rangel Batres SO-2 LSU 3:58.57 4:40.66 4:29.44
41 Mikaela Lucki SR-4 West Virginia 5:34.32 4:40.94 4:24.09
45 Anna Juul SR-4 Michigan 5:52.00 4:41.60 5:09.76
46 Courtney Hufsmith   UniversityofCalgary Athletics 4:47.62 4:41.98 5:04.54
50 Kileigh Kane JR-3 Penn State 5:11.45 4:43.13 4:06.33
52 Carmen Alder SO-2 BYU 3:53.48 4:44.73 4:53.28
  Gina McNamara   Pacers/GRC New Balance DNF DNF DNF
  Susan Aneno   PDC DNF DNF DNF
Women's Mile Section 4
PL NAME YEAR TEAM TIME TIME TIME
18 Calli Doan SR-4 Liberty 4:03.34 4:36.52 5:29.06
28 Alondra Negron   Proceres 4:07.82 4:38.44 6:01.98
31 Jami Reed JR-3 Alabama 3:51.76 4:39.23 3:57.35
42 Emma McGill SO-2 Villanova 5:03.43 4:40.95 5:51.19
43 Chloe Thomas SO-2 Connecticut 6:05.36 4:41.04 3:19.54
44 Lydia Van Dijk SR-4 Wake Forest 4:10.28 4:41.21 4:24.34
49 Natalie Cizmas Senior VNTC 3:23.85 4:43.12 3:18.19
54 Hayley Jackson SR-4 West Virginia 3:42.31 4:45.01 3:59.41
57 Nicole Vanasse JR-3 Columbia 5:11.59 4:45.86 5:23.03
60 Kenzie Doyle JR-3 UMass Lowell 4:28.89 4:46.05 3:34.54
61 Hannah Ballowe JR-3 Virginia Tech 4:38.30 4:46.90 5:55.76
67 Samantha Friborg JR-3 Yale 4:45.34 4:48.22 3:56.34
76 Chloe Coutts Sophomore Western Ontario 4:03.28 4:49.61 4:32.24
84 Alsu Lenneman   Very Nice TC/Ypsi Running 3:24.16 4:51.65 3:56.24
  Alena Ellsworth SR-4 BYU DNF DNF DNF
Women's Mile Section 5
PL NAME YEAR TEAM TIME TIME TIME TIME TIME TIME
34 Margaret Liebich SO-2 Princeton 3:32.69 5:47.02 4:23.06 4:39.85 4:53.85 4:03.47
36 Mel Zammitti Senior Rhode Island Track Club 4:09.25 3:32.84 3:18.84 4:40.05 4:59.66 3:44.04
37 Kimberley May SO-2 Providence 3:33.09 4:17.94 3:24.67 4:40.37 3:49.91 4:01.12
38 Sydney Pattison   Stridewise 5:19.67 4:12.37 4:03.96 4:40.41 3:35.92 5:28.08
40 Florence Caron Junior Universite Laval 4:51.93 5:28.42 3:58.60 4:40.70 3:36.14 4:29.48
47 Carey Celata   Liberty Track Club 5:16.27 4:00.03 3:51.56 4:42.38 5:47.33 5:38.86
55 Meghan Convery SR-4 Boston University 4:48.57 3:37.14 5:14.29 4:45.71 6:05.71 6:05.71
58 Maya Rayle SR-4 Harvard 3:48.74 6:00.26 4:51.64 4:45.92 3:37.30 4:48.78
59 Anna Helwigh JR-3 Villanova 5:14.53 6:00.28 4:28.78 4:45.93 4:40.22 3:40.17
62 Ellaney Matarese SO-2 Harvard 5:21.59 5:56.05 6:04.66 4:47.13 4:24.16 5:30.20
68 Laura Nicholson JR-3 Temple 4:39.61 5:34.37 5:11.31 4:48.25 6:06.08 3:27.54
74 Grace Boone JR-3 Virginia Tech 4:58.27 5:09.85 4:06.15 4:49.58 4:55.38 4:20.63
89 Kristin Siegle   Empire Elite TC 6:11.66 5:18.98 5:57.02 4:52.64 5:30.69 3:57.04
  Emily Sessa SR-4 UMass Lowell DNF DNF DNF DNF DNF DNF
Women's Mile Section 6
PL NAME YEAR TEAM TIME TIME TIME TIME
51 Melissa Menghini   Roots Running Project 3:52.37 5:45.72 4:43.37 5:37.21
64 Emma Eastman JR-3 Syracuse 5:53.67 5:30.66 4:47.53 3:21.27
65 Ashley Navarro SR-4 Monmouth 6:02.58 3:35.82 4:47.76 3:50.21
70 Kyla Martin Senior South Simcoe Dufferin 5:37.96 3:27.98 4:48.85 4:40.19
71 Sarah Flynn JR-3 Boston College 4:20.04 3:45.37 4:48.93 4:25.82
72 Maggie McCleskey FR-1 Adams State 3:57.12 4:28.92 4:49.16 5:23.86
73 Olivia Lomascolo JR-3 Siena 3:33.99 4:17.37 4:49.17 4:52.07
79 Ella Gilson SO-2 Harvard 4:59.49 3:49.70 4:50.76 4:27.50
95 Rachel Hickey SR-4 Illinois State 5:51.66 6:06.32 4:53.05 5:48.73
104 Anastaysia Davis SO-2 BYU 4:36.57 4:36.57 4:54.22 4:30.69
108 Ava Duggan JR-3 Northeastern 5:06.71 3:26.44 4:54.91 3:52.98
115 Henna Rustami   Brooklyn Track Club 6:03.67 4:08.36 4:55.66 3:44.71
167 Chase Kappeler SO-2 Virginia Tech 3:56.74 6:31.53 5:03.51 5:18.69
189 Camille Boudreau Sophomore Universite Laval 3:39.61 6:14.27 5:09.31 5:30.97
  Paige Carter   UNAT-Boston College DNF DNF DNF DNF
Women's Mile Section 7
PL NAME YEAR TEAM TIME TIME TIME
53 Anya Hirschfeld JR-3 Dartmouth 4:44.82 3:19.38 6:01.73
56 Yukino Parle SR-4 George Washington 4:45.80 4:37.23 3:51.50
63 Kaila Neigum Senior Regina 4:47.41 6:02.14 3:29.81
66 Ashley Corcoran SR-4 SNHU 4:48.19 4:51.08 6:06.01
69 Callie Hardy SO-2 LSU 4:48.60 5:57.87 5:03.03
75 Clare Peters JR-3 Colo. Sch. of Mines 4:49.60 4:26.44 4:43.81
81 Celia Chacko SR-4 Connecticut 4:50.90 6:00.72 3:26.54
87 Eleanor Abraham JR-3 Navy 4:52.08 4:22.88 5:53.42
91 Nicole Yeomans SR-4 New Hampshire 4:52.75 4:32.26 5:24.96
98 Ryen Frazier   Unattached 4:53.50 5:43.40 5:46.33
107 Jill Walker FR-1 New Hampshire 4:54.91 5:48.00 3:58.88
112 Lucy Abdow JR-3 Northeastern 4:55.40 6:06.30 4:22.91
124 Lucia Rabolli FR-1 Rutgers 4:56.69 3:30.65 3:39.55
165 Hope Murphy SO-2 Baldwin Wallace 5:03.49 6:10.26 6:10.26
  Meghan Hunter SO-2 BYU DNF DNF DNF
Women's Mile Section 8
PL NAME YEAR TEAM TIME TIME
77 Ainhoa Brea Senior Unattached 6:03.05 4:50.44
80 Emily Robinson SO-2 Villanova 6:12.27 4:50.83
83 Katherine Strong FR-1 Dartmouth 5:03.11 4:51.45
86 Sydney Nowicki SO-2 Syracuse 5:18.25 4:51.97
88 Tessa Hunt SR-4 Providence 3:30.34 4:52.14
90 Sarah Mitchell FR-1 George Washington 5:45.35 4:52.67
92 Gillian Roeder JR-3 MIT 5:45.48 4:52.78
101 Sarah Ross SO-2 UMass Lowell 3:37.61 4:54.06
103 Sevanne Ghazarian   Laurel Creek 6:19.50 4:54.18
110 Nimrit Ahuja FR-1 Brown 5:09.97 4:55.21
113 Gabby Swider SR-4 Michigan 4:37.73 4:55.45
117 Morgan Lee JR-3 RPI 6:15.81 4:55.91
121 Isabel Stronski JR-3 Brown 6:04.64 4:56.45
150 Danielle Adams FR-1 Connecticut 3:30.00 4:59.99
170 Caroline Ash Freshman St. Francis Xavier 5:52.96 5:04.27
171 Olivia Takla FR-1 Brown 4:25.01 5:04.61
  Krystie Solomon SO-2 BYU DNF DNF
Women's Mile Section 9
PL NAME YEAR TEAM TIME TIME TIME TIME TIME
82 Leoni Mierswa JR-3 SMU 3:47.26 4:30.96 3:29.78 4:51.35 6:01.28
85 Mariana Rodriguez JR-3 UCF 5:26.92 5:38.60 3:53.52 4:51.89 5:18.16
96 Madi Moffitt SR-4 BYU 5:16.64 4:38.53 3:48.68 4:53.18 4:32.66
105 Alex Raichart SR-4 Colo. Sch. of Mines 4:16.24 5:32.81 5:29.87 4:54.52 5:06.30
106 Molly Fitzgibbons JR-3 Williams 5:59.55 3:32.20 4:54.71 4:54.71 6:14.29
114 Vivian McMahon SO-2 Northeastern 4:28.88 3:32.74 4:43.66 4:55.47 4:43.66
116 Alexis Allen SO-2 Princeton 5:07.72 4:08.54 4:44.05 4:55.88 5:19.55
120 Delia McDade Clay JR-3 Siena 4:08.75 4:02.83 4:11.71 4:56.13 6:04.24
125 Paige Sheppard   Speed Skills TC 4:03.46 4:21.28 4:18.31 4:56.90 4:09.40
126 Madison Edwards SR-4 Air Force 3:45.88 5:47.73 4:18.57 4:57.20 5:50.70
135 Lexi Seifert SR-4 George Washington 5:16.00 4:07.44 5:13.02 4:58.11 5:21.96
139 Melissa Jachim SO-2 Army West Point 3:34.84 5:10.32 6:21.93 4:58.38 5:43.14
146 Kensey May FR-1 Syracuse 3:41.53 3:38.54 6:08.22 4:59.36 5:53.25
164 Tabatha Walford SR-4 Eastern Michigan 3:38.46 5:27.69 5:54.99 5:03.41 4:05.77
202 Justus Holden-Betts JR-3 Syracuse 6:13.06 4:58.45 5:01.56 5:10.88 4:49.12
203 Madeline Bachmann SR-4 Boston University 5:14.26 5:45.37 4:40.03 5:11.14 6:22.71
Women's Mile Section 10
PL NAME YEAR TEAM TIME TIME TIME TIME
78 Taylor Lovell FR-1 BYU 4:50.48 3:37.86 5:22.44 5:31.15
93 Caroline Kirby SO-2 Syracuse 4:52.92 5:19.29 5:07.57 4:11.92
94 Lillian Holtery SO-2 UCF 4:53.01 4:14.92 5:51.62 6:12.13
100 Isabella Leak SO-2 Monmouth 4:53.62 4:03.71 5:17.11 6:15.84
118 Jane Leighton SR-4 Vermont 4:56.05 5:04.94 4:11.65 4:32.37
127 Steph Finley JR-3 Dartmouth 4:57.22 4:03.72 4:42.36 5:09.11
131 Zoe Brickley SR-4 Wingate 4:57.55 5:09.46 6:00.04 5:21.36
136 Sabrina Lavigne Senior Universite Laval 4:58.17 4:07.49 4:55.19 3:28.72
140 Madison Relyea SO-2 Connecticut 4:58.80 4:02.03 4:46.85 5:40.64
145 Grace Hadley SR-4 WPI 4:59.35 4:29.42 5:56.23 5:41.26
153 Laura Zimmer JR-3 Claremont-Mudd-Scripps 5:00.82 3:39.60 3:30.58 5:18.87
154 Macey Hilton FR-1 SMU 5:01.25 5:10.29 6:31.63 5:58.49
155 Isis Diaz FR-1 Johns Hopkins 5:01.62 5:49.88 6:26.08 3:49.24
156 Rachel Conhoff SR-4 Ursinus 5:01.80 5:10.86 6:05.18 5:53.11
157 Hope Harnack Senior McMaster 5:01.81 3:37.31 6:08.21 3:46.36
201 Natasha Beijen FR-1 Texas 5:10.72 5:01.40 6:25.30 6:37.73
Women's Mile Section 11
PL NAME YEAR TEAM TIME TIME TIME TIME TIME TIME TIME
102 Linde Fonville FR-1 Yale 4:24.69 6:22.32 5:29.38 6:07.62 4:57.03 4:54.09 3:40.57
111 Jordyn McDonnell SR-4 Hofstra 4:52.38 4:52.38 4:22.85 5:24.87 5:57.35 4:55.33 3:41.50
119 Gabrielle Toth JR-3 Iona 3:33.17 5:31.60 5:46.41 3:27.25 5:49.37 4:56.07 3:45.02
122 Nina Gunther Senior Ottawa 6:25.51 4:44.68 3:33.51 4:20.96 4:59.51 4:56.54 4:32.82
128 Shannon Trevor SO-2 Northeastern 6:08.64 5:50.81 6:20.54 3:42.97 6:14.59 4:57.29 3:37.03
129 Jerika Lufrano JR-3 La Salle 6:14.61 4:12.72 4:54.34 4:21.64 3:34.07 4:57.31 5:09.21
142 Brooke Morabito JR-3 Central Connecticut 5:43.87 5:34.90 3:56.22 5:46.86 4:50.04 4:59.01 6:22.74
144 Leila Trummel SR-4 Bowdoin 3:35.50 4:41.35 3:32.51 6:11.14 4:14.41 4:59.30 4:02.44
147 Mary-Kate Finn FR-1 UMass Lowell 3:59.60 4:41.52 3:59.60 5:05.48 6:05.38 4:59.49 3:53.61
148 Lily O'Donoghue-McDonald FR-1 Harvard 6:02.60 3:29.77 3:47.75 6:26.58 6:08.60 4:59.67 6:29.58
149 Eugenia Fairhurst SO-2 UMass Amherst 4:26.84 5:41.80 6:20.78 5:11.82 4:14.85 4:59.82 4:26.84
162 Peyton Leigh FR-1 Princeton 6:18.37 5:08.75 3:59.13 3:59.13 6:33.50 5:02.69 5:42.04
190 Bailey Ranta FR-1 Toledo 6:39.32 5:46.70 5:15.75 4:38.60 5:55.99 5:09.55 4:16.93
193 Nora Blodgett SR-4 Northeastern 6:24.39 6:36.79 6:18.19 4:14.20 6:21.29 5:09.99 6:15.09
267 Tatjana Mense JR-3 Wingate 6:54.21 6:25.31 6:44.58 4:16.88 5:33.94 5:21.09 3:57.61
Women's Mile Section 12
PL NAME YEAR TEAM TIME TIME
97 Elizabeth Vroom Freshman Queen's University 6:12.50 4:53.30
99 Cornelia Wohlfahrt JR-3 North Dakota 3:48.95 4:53.52
109 Mairead Clas FR-1 Cornell 4:46.34 4:55.19
123 Katja Jackson FR-1 Cornell 6:19.74 4:56.67
130 Isolde McManus SO-2 Brown 5:30.13 4:57.41
132 Kate Kenny SR-4 Middlebury 6:17.94 4:57.59
133 Mackenzie Setton FR-1 Johns Hopkins 4:46.01 4:57.92
134 Erin Eivers SO-2 SUNY Geneseo 3:52.49 4:58.06
138 Abby Beville   New England Elite Track Club 4:58.29 4:58.29
141 Sierra Doody FR-1 SUNY Geneseo 5:52.84 4:59.01
143 Calista Mayer Freshman Unattached 5:29.21 4:59.28
152 Carly Hall SO-2 Youngstown St. 4:45.03 5:00.03
172 Adele Broussard JR-3 LSU 4:55.51 5:04.65
254 Ally McCarthy Freshman Unattached 3:59.22 5:18.95
278 Lizzie Bigelow FR-1 Syracuse 6:23.78 5:25.23
Women's Mile Section 13
PL NAME YEAR TEAM TIME TIME
137 Marcie Hogan JR-3 SUNY Geneseo 4:58.26 3:46.68
161 Tenley Nelson Junior Phillips Exeter 5:02.56 4:20.21
166 Vassi Klock FR-1 Buffalo 5:03.49 3:32.45
168 Caroline McMartin SO-2 Central College 5:03.59 6:28.60
173 Andie Cornish SR-4 Vermont 5:04.71 5:32.14
174 Cristina DeMeo FR-1 Harvard 5:05.11 6:33.60
175 Sira Bo FR-1 Wingate 5:05.55 3:33.89
177 Christina Crow SO-2 MIT 5:05.83 3:46.32
179 Caleigh Pribaz Freshman Queen's University 5:06.41 6:29.14
180 Victoria Lamb Sophomore McMaster 5:06.53 6:38.49
182 Rebekah James SR-4 UMass Amherst 5:07.05 5:07.05
184 Elizabeth White Freshman Queen's University 5:07.42 5:47.39
188 Lily Sheth SO-2 Johns Hopkins 5:08.73 3:51.55
196 Mackenzie Czurak SO-2 UCF 5:10.17 5:56.70
236 Dantia Braccio FR-1 UMass Lowell 5:17.09 4:48.56
239 Kata Clark   New England Elite Track Club 5:17.52 5:27.05
256 Maya Richardson JR-3 Iona 5:19.55 4:25.23
Women's Mile Section 14
PL NAME YEAR TEAM TIME TIME TIME TIME TIME TIME TIME
158 Ona Alonso FR-1 Wingate 6:32.44 5:04.89 5:01.87 4:55.84 5:47.15 3:46.41 5:01.87
176 Adriana Catalano FR-1 Johns Hopkins 3:46.18 6:34.28 4:59.53 4:59.53 4:19.80 4:25.91 5:05.64
178 Ella Webster FR-1 Wittenberg 6:16.31 4:29.23 6:19.37 4:32.29 6:01.01 3:58.64 5:05.94
183 Miana Caraballo FR-1 UMass Lowell 4:17.98 6:11.62 4:11.84 5:00.98 4:57.91 4:30.27 5:07.12
187 Izzy Doran SR-4 George Washington 5:05.59 5:33.37 4:16.20 3:42.25 6:32.01 4:22.37 5:08.67
194 Sarah-Maude Thibodeau   Zenix 4:26.68 5:34.90 6:15.21 3:37.07 5:19.40 5:03.89 5:10.09
195 Chloe Poulos FR-1 Siena 4:01.91 4:42.23 3:58.81 5:13.25 4:32.93 5:03.94 5:10.14
204 Lauren Traum JR-3 Bowdoin 6:25.95 6:32.18 4:40.13 4:58.80 4:40.13 4:43.24 5:11.25
207 Kyra Gerber SR-4 Shippensburg 6:42.23 3:56.97 3:47.62 3:50.74 5:36.75 4:28.15 5:11.80
212 Alexandra Dean FR-1 Tufts 4:59.68 5:58.99 4:03.49 4:31.58 4:59.68 4:40.95 5:12.16
214 Anna Macdonald FR-1 Pomona-Pitzer 4:04.25 4:26.16 5:50.71 4:57.48 5:41.32 5:19.40 5:13.13
218 Hannah D'Orso SR-4 Hartford 4:42.58 6:16.77 6:45.03 6:04.21 5:13.97 6:38.75 5:13.97
219 Marissa Silba SR-4 Canisius 4:45.73 5:32.82 4:33.17 6:26.20 5:57.94 4:30.03 5:13.98
228 Aisling Callahan FR-1 Johns Hopkins 6:43.58 6:12.05 6:21.50 3:53.32 6:34.12 4:53.22 5:15.29
244 Kaitlyn O'Rourke JR-3 SNHU 4:11.15 4:49.30 3:58.44 4:58.84 4:42.94 6:15.14 5:17.91
279 Katie Cline FR-1 Pomona-Pitzer 6:08.47 6:11.74 4:11.09 5:52.17 4:17.61 6:01.95 5:26.08
284 Rhea Braganza FR-1 Pomona-Pitzer 3:54.43 4:07.64 6:26.31 6:13.11 5:16.98 5:26.88 5:30.18
Women's Mile Section 15
PL NAME YEAR TEAM TIME TIME TIME TIME TIME
151 Lucy Gagnon JR-3 Williams 5:00.02 5:27.03 4:18.02 3:33.02 5:33.03
159 Kate Cameron FR-1 Simon Fraser 5:02.17 5:56.56 6:29.80 3:40.59 4:47.07
160 Cora Henderson   Durham Dragons Athletics 5:02.27 4:44.14 5:26.46 5:50.64 4:04.84
163 Gillian Porter Freshman Queen's University 5:03.24 3:47.43 5:36.60 5:00.21 4:57.18
169 Claire Kelly SO-2 Providence 5:04.22 4:52.06 5:01.18 4:27.72 4:00.34
181 Ava Mahoney JR-3 Merrimack 5:06.59 5:31.12 3:53.01 4:32.87 6:32.44
185 Amelia Kokernak SR-4 WPI 5:07.51 5:47.49 6:21.32 5:35.19 5:32.11
197 Caitlin Guilfoyle JR-3 WPI 5:10.19 5:38.11 6:27.74 5:35.01 6:15.33
211 Sydney Todd SO-2 Monmouth 5:12.16 5:37.14 5:09.04 4:47.19 3:38.52
223 Jillian Lees JR-3 RPI 5:14.54 4:33.65 5:17.69 5:01.96 5:52.29
226 Molly Silva SO-2 Lynchburg 5:15.02 6:24.33 3:43.67 4:30.92 5:21.32
230 Jules Jones JR-3 Canisius 5:16.16 5:50.94 5:00.36 5:44.62 6:44.69
232 Julia Schor SO-2 Amherst 5:16.71 5:51.55 4:22.87 6:51.73 5:26.22
233 Abby Scott SR-4 Williams 5:16.93 5:23.27 5:20.10 6:10.81 5:01.09
237 Jacqueline Appenheimer FR-1 Canisius 5:17.17 6:23.78 3:51.54 4:51.80 5:20.35
238 Camille Rheault Freshman Universite Laval 5:17.45 3:58.09 4:29.84 5:39.68 5:36.50
259 Fanny Hotton-Daigneault Freshman Universite Laval 5:19.80 3:56.66 6:17.37 5:07.01 5:13.41
Women's Mile Section 16
PL NAME YEAR TEAM TIME TIME TIME TIME
186 Sylvan Wold SO-2 Amherst 4:06.70 6:00.80 5:08.37 3:48.20
191 Alex Bettez SO-2 Williams 4:04.73 4:54.29 5:09.78 3:58.53
192 Leah Haley SR-4 NYU 6:27.34 6:42.84 5:09.87 4:07.90
199 Katherine Cheng SO-2 NYU 4:36.38 4:27.07 5:10.54 5:54.02
208 Rachael Watkins FR-1 Simon Fraser 6:33.02 6:23.67 5:11.92 6:33.02
210 Mary Yount JR-3 UMass Lowell 3:38.49 4:00.34 5:12.13 5:30.86
213 Kaitlyn Grossman SO-2 SUNY Geneseo 6:27.86 4:38.39 5:12.79 6:05.97
217 Audrey Grimes SR-4 Middlebury 4:14.22 3:42.84 5:13.85 5:48.38
222 Briana Grecco SO-2 So. Conn. St. 5:36.54 5:45.98 5:14.52 4:11.62
224 Lucia Werner Junior Unattached 5:59.06 6:46.30 5:14.96 6:21.11
229 Clare Kelly SO-2 Vermont 4:18.71 6:28.06 5:15.49 4:02.93
240 Delaney Hesler Freshman Unattached 6:40.26 6:08.49 5:17.66 6:37.08
241 Ella Whinney FR-1 Wellesley 6:37.09 6:52.98 5:17.67 5:27.20
242 Holly Chambers SR-4 Ursinus 4:46.03 5:30.53 5:17.81 5:43.24
245 Elizabeth Donahue FR-1 Tufts 3:48.92 3:45.74 5:17.94 5:37.02
247 Harrinee Senthilkumar SO-2 Johns Hopkins 5:30.96 5:15.05 5:18.23 3:52.31
251 Sydney Khosla SO-2 Wittenberg 4:56.23 5:34.45 5:18.52 4:21.19
Women's Mile Section 17
PL NAME YEAR TEAM TIME TIME TIME TIME TIME
198 Kelsey Hull FR-1 Shippensburg 4:30.01 6:27.94 5:10.35 3:49.66 4:39.32
200 Lilly Wells SR-4 Williams 3:43.69 4:48.94 5:10.68 6:06.61 5:57.29
205 Elise Deshusses SR-4 WPI 4:46.72 6:45.15 5:11.65 4:15.56 4:34.26
206 Sarah Prangley SO-2 Simon Fraser 4:09.44 6:17.27 5:11.79 6:20.39 5:02.44
209 Fransiscah Cherotich FR-1 American Int'l 4:25.28 4:34.64 5:12.09 4:12.80 4:03.43
215 Grace Minikel JR-3 Adelphi 4:35.73 4:51.39 5:13.32 5:35.26 6:25.39
216 Kylie Marion FR-1 UMass Lowell 5:57.60 4:51.73 5:13.68 5:19.96 6:41.51
220 Sarah Burns SR-4 UMass Lowell 5:51.70 4:11.21 5:14.01 6:41.94 3:49.23
225 Ally Deegan JR-3 Amherst 5:59.09 5:18.14 5:14.99 5:21.29 5:27.59
234 Samantha Fellman FR-1 Tufts 6:36.24 5:42.35 5:16.99 4:19.94 5:16.99
249 Ellie Murphy-Weise SR-4 Wellesley 4:14.66 3:58.74 5:18.32 6:21.99 5:18.32
250 Veronica Dailey JR-3 Brockport St. 5:05.65 6:12.51 5:18.38 4:56.10 5:40.67
268 Reid Harvey-McKean   Durham Dragons Athletics 4:40.13 4:11.15 5:21.98 4:40.13 4:14.37
271 Sarah Enes JR-3 Assumption 4:17.92 4:30.81 5:22.39 6:23.65 4:14.69
273 Violet Ross SO-2 Middlebury 5:22.75 6:30.53 5:22.75 4:40.80 5:42.12
283 Finleigh Simonds Senior New England Elite Track Club 6:58.65 6:09.20 5:29.64 7:08.54 6:42.16
286 Stella Gladden FR-1 NYU 4:28.88 6:11.79 5:31.95 5:15.36 6:41.66
  Candace Tytler FR-1 Boston University DNF DNF DNF DNF DNF
  Kyandra Chandler SR-4 Southern Virginia DNF DNF DNF DNF DNF
Women's Mile Section 18
PL NAME YEAR TEAM TIME TIME TIME TIME TIME TIME TIME
221 Catherine Dacey SO-2 Union (N.Y.) 5:01.89 4:33.58 5:11.32 4:55.60 3:58.99 5:14.46 4:49.31
231 Kristina Kyle FR-1 Springfield 4:51.02 4:22.55 4:54.18 5:32.14 6:38.57 5:16.32 6:22.75
235 Abby Artabane   Emerging Elite 4:07.26 4:04.09 5:26.51 4:16.77 6:36.25 5:17.00 4:10.43
243 Ella DePhillips JR-3 Oneonta 5:17.85 4:46.07 4:33.36 6:24.60 6:05.53 5:17.85 3:45.68
246 Rachel Tucci JR-3 Adelphi 5:21.38 6:25.01 4:33.65 6:05.92 6:34.56 5:18.19 5:34.10
252 Eleanor Tyne FR-1 Tufts 4:33.94 5:24.90 4:56.24 3:46.16 5:08.98 5:18.53 4:08.46
253 Nanditha Hegde   New England Elite Track Club 5:44.08 4:53.11 4:18.06 6:00.01 6:35.06 5:18.59 4:40.36
258 Jaz Vanderhoof FR-1 Wheaton (Mass.) 5:16.51 4:06.17 5:45.28 5:48.48 5:19.70 5:19.70 4:38.14
260 Haley Oliver FR-1 RIC 6:52.57 4:22.26 4:22.26 4:44.64 3:59.87 5:19.82 6:33.38
261 Bridget Pickard JR-3 Brandeis 5:39.08 4:38.30 4:12.71 5:23.08 5:58.27 5:19.88 5:29.48
264 Emma Barker SO-2 Bowdoin 5:07.83 4:03.70 6:47.23 4:32.56 4:38.97 5:20.65 3:44.46
269 Lauren Pollak JR-3 Tufts 5:09.35 5:28.69 4:43.58 5:48.02 5:28.69 5:22.24 6:42.80
270 Ona Ortiz-Gudeman FR-1 Amherst 6:36.52 5:57.83 5:15.93 6:13.95 4:56.58 5:22.37 5:35.27
275 Ella Warkentine FR-1 Brandeis 4:09.01 4:15.48 5:10.46 6:05.43 5:46.03 5:23.39 4:34.89
276 Hannah Fiorentine SO-2 SUNY Geneseo 3:49.74 4:02.68 6:25.05 6:08.87 6:08.87 5:23.57 4:44.75
277 Grace Ogden FR-1 Tufts 4:22.27 6:18.84 6:57.69 4:51.42 6:54.46 5:23.79 4:41.70
Women's Mile Section 19
PL NAME YEAR TEAM TIME TIME
227 Emma Bouvier SR-4 Merrimack 5:24.48 5:15.03
248 Alexa Van Voorhis SR-4 UMass Dartmouth 5:53.31 5:18.29
255 Olivia Reid SO-2 RPI 6:10.58 5:19.46
257 Ilana Zeilinger SR-4 Bates 3:53.37 5:19.68
262 Lexi Mogensen SO-2 Towson 6:30.59 5:20.15
263 Mirabel Brunell FR-1 Springfield 6:40.73 5:20.58
265 Margo Kenyon SO-2 Colby 6:18.54 5:20.79
266 Corrina Obernesser FR-1 SNHU 5:40.21 5:20.95
272 Kahryn Cullenberg JR-3 Bates 6:43.07 5:22.45
274 Abby Fernald FR-1 Connecticut College 4:50.86 5:23.17
280 Anna Gruesen   Unattached 5:10.75 5:27.10
281 Kiersten Lloyd SO-2 Lock Haven 5:37.27 5:27.44
282 Alix Pettinella   Battle road track club 6:31.57 5:29.05
285 Anna Kavanagh JR-3 Boston University 4:31.94 5:31.63
287 Rowan Hassman SR-4 Bates 6:28.50 5:32.05
288 Emma Hupp JR-3 Coast Guard 4:47.20 5:37.88